H1 CPF 1 NER 2022 1 11 9 5111 glonass134 H2 1407501 9134 40315 2022 1 11 0 0 0 2022 1 14 23 45 0 900 1 1 0 0 0 H9 10 0 59590 0.00000 0 7085161.959 -18084806.989 16509302.228 10 0 59590 900.00000 0 8357064.870 -19484804.152 14145040.546 10 0 59590 1800.00000 0 9327718.177 -20736099.512 11505338.709 10 0 59590 2700.00000 0 10005648.848 -21780419.309 8641476.724 10 0 59590 3600.00000 0 10411158.598 -22564534.973 5609171.480 10 0 59590 4500.00000 0 10575213.679 -23042563.189 2467486.923 10 0 59590 5400.00000 0 10537885.772 -23177978.072 -722327.239 10 0 59590 6300.00000 0 10346410.739 -22945248.310 -3898044.523 10 0 59590 7200.00000 0 10052948.812 -22331028.009 -6997693.081 10 0 59590 8100.00000 0 9712142.974 -21334849.117 -9960783.570 10 0 59590 9000.00000 0 9378581.234 -19969284.792 -12729507.572 10 0 59590 9900.00000 0 9104272.588 -18259576.062 -15249881.118 10 0 59590 10800.00000 0 8936245.872 -16242737.334 -17472809.471 10 0 59590 11700.00000 0 8914374.980 -13966178.769 -19355051.219 10 0 59590 12600.00000 0 9069523.850 -11485904.263 -20860062.206 10 0 59590 13500.00000 0 9422090.427 -8864361.617 -21958702.825 10 0 59590 14400.00000 0 9981011.217 -6168035.957 -22629795.417 10 0 59590 15300.00000 0 10743268.050 -3464887.856 -22860521.846 10 0 59590 16200.00000 0 11693916.954 -821743.505 -22646654.856 10 0 59590 17100.00000 0 12806636.842 1698254.460 -21992620.223 10 0 59590 18000.00000 0 14044773.646 4038029.998 -20911390.094 10 0 59590 18900.00000 0 15362834.858 6148692.801 -19424211.125 10 0 59590 19800.00000 0 16708370.770 7991307.399 -17560174.051 10 0 59590 20700.00000 0 18024162.739 9538240.941 -15355634.218 10 0 59590 21600.00000 0 19250626.425 10774036.403 -12853495.170 10 0 59590 22500.00000 0 20328329.310 11695777.736 -10102369.733 10 0 59590 23400.00000 0 21200517.377 12312934.561 -7155635.169 10 0 59590 24300.00000 0 21815545.779 12646695.553 -4070400.699 10 0 59590 25200.00000 0 22129112.601 12728820.685 -906407.064 10 0 59590 26100.00000 0 22106203.052 12600062.048 2275120.968 10 0 59590 27000.00000 0 21722663.646 12308220.668 5412647.730 10 0 59590 27900.00000 0 20966341.160 11905921.371 8445503.641 10 0 59590 28800.00000 0 19837739.125 11448199.160 11315044.257 10 0 59590 29700.00000 0 18350164.366 10989998.044 13965770.191 10 0 59590 30600.00000 0 16529356.915 10583686.707 16346387.487 10 0 59590 31500.00000 0 14412617.716 10276694.564 18410789.066 10 0 59590 32400.00000 0 12047468.912 10109366.778 20118939.433 10 0 59590 33300.00000 0 9489900.492 10113127.863 21437646.421 10 0 59590 34200.00000 0 6802274.036 10309030.936 22341205.623 10 0 59590 35100.00000 0 4050968.251 10706754.019 22811905.299 10 0 59590 36000.00000 0 1303861.732 11304086.597 22840381.780 10 0 59590 36900.00000 0 -1372244.559 12086929.624 22425817.756 10 0 59590 37800.00000 0 -3914159.811 13029811.033 21575978.490 10 0 59590 38700.00000 0 -6264686.875 14096897.496 20307083.691 10 0 59590 39600.00000 0 -8374758.211 15243462.291 18643515.687 10 0 59590 40500.00000 0 -10205235.432 16417749.808 16617367.598 10 0 59590 41400.00000 0 -11728297.040 17563160.009 14267838.314 10 0 59590 42300.00000 0 -12928355.526 18620661.980 11640484.393 10 0 59590 43200.00000 0 -13802464.671 19531335.214 8786342.100 10 0 59590 44100.00000 0 -14360199.136 20238930.987 5760935.906 10 0 59590 45000.00000 0 -14623010.886 20692344.467 2623192.718 10 0 59590 45900.00000 0 -14623089.546 20847891.320 -565716.514 10 0 59590 46800.00000 0 -14401775.302 20671290.423 -3743584.088 10 0 59590 47700.00000 0 -14007592.505 20139266.527 -6848396.512 10 0 59590 48600.00000 0 -13493988.806 19240702.998 -9819563.208 10 0 59590 49500.00000 0 -12916877.552 17977294.074 -12599116.997 10 0 59590 50400.00000 0 -12332089.743 16363667.853 -15132860.886 10 0 59590 51300.00000 0 -11792845.576 14426974.133 -17371437.223 10 0 59590 52200.00000 0 -11347354.581 12205954.309 -19271297.186 10 0 59590 53100.00000 0 -11036647.285 9749532.889 -20795550.959 10 0 59590 54000.00000 0 -10892730.968 7114990.431 -21914682.036 10 0 59590 54900.00000 0 -10937147.610 4365795.282 -22607112.179 10 0 59590 55800.00000 0 -11179994.482 1569185.655 -22859606.959 10 0 59590 56700.00000 0 -11619447.746 -1206396.523 -22667515.322 10 0 59590 57600.00000 0 -12241807.765 -3893912.923 -22034840.014 10 0 59590 58500.00000 0 -13022062.697 -6430269.092 -20974139.115 10 0 59590 59400.00000 0 -13924945.082 -8758683.042 -19506262.132 10 0 59590 60300.00000 0 -14906435.568 -10830785.289 -17659927.153 10 0 59590 61200.00000 0 -15915649.444 -12608364.993 -15471148.445 10 0 59590 62100.00000 0 -16897025.924 -14064692.096 -12982526.486 10 0 59590 63000.00000 0 -17792727.900 -15185363.168 -10242414.723 10 0 59590 63900.00000 0 -18545151.411 -15968638.378 -7303979.566 10 0 59590 64800.00000 0 -19099439.870 -16425258.297 -4224171.800 10 0 59590 65700.00000 0 -19405898.203 -16577750.493 -1062629.036 10 0 59590 66600.00000 0 -19422206.373 -16459256.860 2119469.946 10 0 59590 67500.00000 0 -19115340.302 -16111932.180 5260577.569 10 0 59590 68400.00000 0 -18463120.323 -15584981.861 8299954.748 10 0 59590 69300.00000 0 -17455322.745 -14932421.352 11178831.314 10 0 59590 70200.00000 0 -16094308.011 -14210651.005 13841528.337 10 0 59590 71100.00000 0 -14395138.732 -13475947.488 16236521.864 10 0 59590 72000.00000 0 -12385181.684 -12781976.116 18317428.675 10 0 59590 72900.00000 0 -10103208.878 -12177427.571 20043896.121 10 0 59590 73800.00000 0 -7598033.067 -11703877.314 21382379.773 10 0 59590 74700.00000 0 -4926732.241 -11393956.995 22306794.431 10 0 59590 75600.00000 0 -2152534.271 -11269914.469 22799026.157 10 0 59590 76500.00000 0 657553.034 -11342623.288 22849295.260 10 0 59590 77400.00000 0 3435270.379 -11611084.224 22456362.471 10 0 59590 78300.00000 0 6113691.106 -12062441.238 21627573.244 10 0 59590 79200.00000 0 8629755.210 -12672513.122 20378737.728 10 0 59590 80100.00000 0 10926648.841 -13406820.532 18733846.943 10 0 59590 81000.00000 0 12955930.628 -14222067.233 16724628.679 10 0 59590 81900.00000 0 14679316.021 -15068014.982 14389949.760 10 0 59590 82800.00000 0 16070044.381 -15889674.271 11775074.651 10 0 59590 83700.00000 0 17113770.743 -16629719.093 8930793.467 10 0 59590 84600.00000 0 17808943.886 -17231023.619 5912435.563 10 0 59590 85500.00000 0 18166653.956 -17639212.608 2778787.857 10 0 59591 0.00000 0 18209955.674 -17805116.116 -409060.289 10 0 59591 900.00000 0 17972695.717 -17687022.555 -3588923.718 10 0 59591 1800.00000 0 17497894.436 -17252632.261 -6698750.172 10 0 59591 2700.00000 0 16835751.656 -16480626.824 -9677850.887 10 0 59591 3600.00000 0 16041362.504 -15361785.384 -12468102.765 10 0 59591 4500.00000 0 15172242.001 -13899599.158 -15015098.386 10 0 59591 5400.00000 0 14285765.249 -12110357.063 -17269219.485 10 0 59591 6300.00000 0 13436633.429 -10022698.211 -19186611.791 10 0 59591 7200.00000 0 12674474.308 -7676650.125 -20730041.435 10 0 59591 8100.00000 0 12041679.624 -5122193.437 -21869616.214 10 0 59591 9000.00000 0 11571571.006 -2417413.857 -22583358.099 10 0 59591 9900.00000 0 11286971.423 373680.460 -22857616.725 10 0 59591 10800.00000 0 11199241.459 3183584.443 -22687317.173 10 0 59591 11700.00000 0 11307819.458 5943863.107 -22076038.690 10 0 59591 12600.00000 0 11600283.168 8587753.157 -21035924.446 10 0 59591 13500.00000 0 12052928.275 11052691.654 -19587425.607 10 0 59591 14400.00000 0 12631837.658 13282667.772 -17758886.107 10 0 59591 15300.00000 0 13294394.694 15230301.471 -15585977.330 10 0 59591 16200.00000 0 13991175.686 16858564.805 -13110994.596 10 0 59591 17100.00000 0 14668140.969 18142076.651 -10382029.614 10 0 59591 18000.00000 0 15269032.121 19067919.446 -7452035.334 10 0 59591 18900.00000 0 15737874.530 19635946.478 -4377801.289 10 0 59591 19800.00000 0 16021480.481 19858569.265 -1218858.997 10 0 59591 20700.00000 0 16071848.163 19760035.887 1963661.786 10 0 59591 21600.00000 0 15848356.567 19375232.035 5108204.581 10 0 59591 22500.00000 0 15319664.777 18748055.985 8153963.706 10 0 59591 23400.00000 0 14465236.456 17929435.958 11042046.005 10 0 59591 24300.00000 0 13276425.799 16975072.855 13716595.511 10 0 59591 25200.00000 0 11757079.090 15943002.399 16125860.535 10 0 59591 26100.00000 0 9923625.954 14891077.934 18223183.705 10 0 59591 27000.00000 0 7804655.023 13874478.301 19967896.931 10 0 59591 27900.00000 0 5439989.773 12943344.099 21326104.958 10 0 59591 28800.00000 0 2879300.702 12140640.499 22271342.925 10 0 59591 29700.00000 0 180308.893 11500335.523 22785095.507 10 0 59591 30600.00000 0 -2593347.177 11045970.032 22857167.428 10 0 59591 31500.00000 0 -5374495.576 10789679.729 22485897.495 10 0 59591 32400.00000 0 -8094969.045 10731711.084 21678210.930 10 0 59591 33300.00000 0 -10688193.818 10860452.840 20449507.422 10 0 59591 34200.00000 0 -13091722.760 11152983.412 18823385.297 10 0 59591 35100.00000 0 -15249608.160 11576112.882 16831205.155 10 0 59591 36000.00000 0 -17114515.271 12087877.362 14511499.488 10 0 59591 36900.00000 0 -18649487.799 12639423.988 11909238.068 10 0 59591 37800.00000 0 -19829290.561 13177207.744 9074962.018 10 0 59591 38700.00000 0 -20641271.911 13645407.329 6063802.595 10 0 59591 39600.00000 0 -21085708.555 13988457.246 2934403.684 10 0 59591 40500.00000 0 -21175617.444 14153587.552 -252230.551 10 0 59591 41400.00000 0 -20936042.261 14093261.756 -3433939.341 10 0 59591 42300.00000 0 -20402844.772 13767407.319 -6548635.145 10 0 59591 43200.00000 0 -19621052.887 13145341.796 -9535533.794 10 0 59591 44100.00000 0 -18642836.590 12207310.730 -12336358.911 10 0 59591 45000.00000 0 -17525199.038 10945570.221 -14896495.065 10 0 59591 45900.00000 0 -16327482.411 9364966.863 -17166065.537 10 0 59591 46800.00000 0 -15108795.821 7482989.567 -19100912.434 10 0 59591 47700.00000 0 -13925475.554 5329290.683 -20663459.303 10 0 59591 48600.00000 0 -12828686.010 2944696.608 -21823439.317 10 0 59591 49500.00000 0 -11862262.995 379749.745 -22558475.314 10 0 59591 50400.00000 0 -11060890.102 -2307156.419 -22854501.249 10 0 59591 51300.00000 0 -10448684.041 -5051970.607 -22706018.179 10 0 59591 52200.00000 0 -10038246.961 -7787413.474 -22116181.289 10 0 59591 53100.00000 0 -9830223.673 -10445542.281 -21096717.875 10 0 59591 54000.00000 0 -9813380.140 -12960344.118 -19667679.441 10 0 59591 54900.00000 0 -9965197.642 -15270250.582 -17857034.096 10 0 59591 55800.00000 0 -10252955.467 -17320470.518 -15700108.393 10 0 59591 56700.00000 0 -10635254.736 -19065045.542 -13238890.305 10 0 59591 57600.00000 0 -11063917.821 -20468544.887 -10521207.466 10 0 59591 58500.00000 0 -11486182.493 -21507331.185 -7599796.930 10 0 59591 59400.00000 0 -11847098.031 -22170346.833 -4531284.500 10 0 59591 60300.00000 0 -12092022.452 -22459390.363 -1375093.113 10 0 59591 61200.00000 0 -12169116.137 -22388873.253 1807698.980 10 0 59591 62100.00000 0 -12031727.549 -21985068.942 4955528.867 10 0 59591 63000.00000 0 -11640571.365 -21284886.589 8007526.736 10 0 59591 63900.00000 0 -10965608.076 -20334221.456 10904678.877 10 0 59591 64800.00000 0 -9987546.433 -19185950.953 13590954.666 10 0 59591 65700.00000 0 -8698905.618 -17897659.782 16014376.964 10 0 59591 66600.00000 0 -7104592.070 -16529188.467 18128016.361 10 0 59591 67500.00000 0 -5221965.617 -15140106.726 19890891.233 10 0 59591 68400.00000 0 -3080390.398 -13787216.084 21268757.122 10 0 59591 69300.00000 0 -720287.047 -12522184.998 22234770.805 10 0 59591 70200.00000 0 1808277.048 -11389414.440 22770016.517 10 0 59591 71100.00000 0 4447403.674 -10424222.557 22863883.989 10 0 59591 72000.00000 0 7133513.210 -9651424.250 22514290.336 10 0 59591 72900.00000 0 9799740.917 -9084365.475 21727740.426 10 0 59591 73800.00000 0 12378482.783 -8724453.506 20519223.035 10 0 59591 74700.00000 0 14803986.648 -8561204.056 18911943.007 10 0 59591 75600.00000 0 17014881.811 -8572804.649 16936892.634 10 0 59591 76500.00000 0 18956541.964 -8727171.910 14632268.615 10 0 59591 77400.00000 0 20583182.376 -8983459.452 12042744.209 10 0 59591 78300.00000 0 21859602.745 -9293953.505 9218609.355 10 0 59591 79200.00000 0 22762501.427 -9606276.391 6214794.660 10 0 59591 80100.00000 0 23281304.497 -9865804.219 3089798.099 10 0 59591 81000.00000 0 23418473.554 -10018195.269 -95464.218 10 0 59591 81900.00000 0 23189278.464 -10011920.188 -3278859.775 10 0 59591 82800.00000 0 22621044.240 -9800684.575 -6398268.801 10 0 59591 83700.00000 0 21751904.159 -9345638.820 -9392814.983 10 0 59591 84600.00000 0 20629112.593 -8617279.060 -12204071.745 10 0 59591 85500.00000 0 19306990.240 -7596956.583 -14777218.462 10 0 59592 0.00000 0 17844590.350 -6277930.041 -17062122.272 10 0 59592 900.00000 0 16303185.485 -4665913.939 -19014324.246 10 0 59592 1800.00000 0 14743684.499 -2779101.340 -20595906.933 10 0 59592 2700.00000 0 13224087.318 -647657.188 -21776230.333 10 0 59592 3600.00000 0 11797087.335 1687294.589 -22532519.222 10 0 59592 4500.00000 0 10507921.630 4175147.872 -22850292.555 10 0 59592 5400.00000 0 9392558.815 6757692.553 -22723627.653 10 0 59592 6300.00000 0 8476299.242 9371315.184 -22155255.529 10 0 59592 7200.00000 0 7772844.414 11949429.838 -21156487.116 10 0 59592 8100.00000 0 7283872.301 14425037.918 -19746973.370 10 0 59592 9000.00000 0 6999133.761 16733310.782 -17954305.335 10 0 59592 9900.00000 0 6897063.491 18814088.444 -15813463.120 10 0 59592 10800.00000 0 6945877.420 20614191.720 -13366125.411 10 0 59592 11700.00000 0 7105108.404 22089453.196 -10659853.487 10 0 59592 12600.00000 0 7327514.130 23206384.307 -7747165.924 10 0 59592 13500.00000 0 7561275.932 23943411.146 -4684521.957 10 0 59592 14400.00000 0 7752395.516 24291629.484 -1531232.904 10 0 59592 15300.00000 0 7847188.690 24255049.337 1651677.651 10 0 59592 16200.00000 0 7794771.491 23850320.472 4802643.558 10 0 59592 17100.00000 0 7549434.596 23105951.454 7860733.997 10 0 59592 18000.00000 0 7072806.777 22061055.527 10766817.696 10 0 59592 18900.00000 0 6335716.887 20763675.879 13464692.164 10 0 59592 19800.00000 0 5319676.303 19268759.891 15902157.346 10 0 59592 20700.00000 0 4017919.362 17635866.188 18032014.077 10 0 59592 21600.00000 0 2435957.297 15926699.102 19812969.174 10 0 59592 22500.00000 0 591621.031 14202572.105 21210430.660 10 0 59592 23400.00000 0 -1485410.984 12521904.732 22197178.314 10 0 59592 24300.00000 0 -3754582.704 10937856.184 22753896.942 10 0 59592 25200.00000 0 -6165890.686 9496193.371 22869561.902 10 0 59592 26100.00000 0 -8661717.885 8233481.841 22541668.803 10 0 59592 27000.00000 0 -11178997.648 7175675.007 21776301.873 10 0 59592 27900.00000 0 -13651620.438 6337160.991 20588038.177 10 0 59592 28800.00000 0 -16012985.058 5720307.710 18999687.758 10 0 59592 29700.00000 0 -18198589.481 5315526.311 17041872.778 10 0 59592 30600.00000 0 -20148553.870 5101851.356 14752451.846 10 0 59592 31500.00000 0 -21809970.195 5048014.474 12175799.020 10 0 59592 32400.00000 0 -23138979.436 5113966.930 9361950.076 10 0 59592 33300.00000 0 -24102488.017 5252787.174 6365631.794 10 0 59592 34200.00000 0 -24679449.863 5412892.436 3245192.973 10 0 59592 35100.00000 0 -24861658.636 5540459.824 61458.400 10 0 59592 36000.00000 0 -24654015.487 5581952.799 -3123470.876 10 0 59592 36900.00000 0 -24074260.125 5486643.887 -6247445.958 10 0 59592 37800.00000 0 -23152176.284 5209024.259 -9249501.358 10 0 59592 38700.00000 0 -21928305.444 4710995.544 -12071063.078 10 0 59592 39600.00000 0 -20452224.010 3963748.597 -14657107.868 10 0 59592 40500.00000 0 -18780458.049 2949247.661 -16957249.382 10 0 59592 41400.00000 0 -16974125.122 1661255.478 -18926728.760 10 0 59592 42300.00000 0 -15096404.224 105855.095 -20527289.514 10 0 59592 43200.00000 0 -13209941.758 -1698554.205 -21727919.522 10 0 59592 44100.00000 0 -11374303.489 -3721786.696 -22505446.073 10 0 59592 45000.00000 0 -9643579.919 -5922903.116 -22844973.207 10 0 59592 45900.00000 0 -8064245.106 -8251702.830 -22740154.117 10 0 59592 46800.00000 0 -6673357.593 -10650612.232 -22193294.825 10 0 59592 47700.00000 0 -5497177.065 -13056889.929 -21215288.678 10 0 59592 48600.00000 0 -4550252.359 -15405056.401 -19825384.524 10 0 59592 49500.00000 0 -3835016.302 -17629446.970 -18050794.486 10 0 59592 50400.00000 0 -3341901.583 -19666782.074 -15926150.152 10 0 59592 51300.00000 0 -3049969.987 -21458648.660 -13492818.672 10 0 59592 52200.00000 0 -2928026.065 -22953790.614 -10798092.613 10 0 59592 53100.00000 0 -2936166.414 -24110114.201 -7894269.679 10 0 59592 54000.00000 0 -3027697.837 -24896326.710 -4837640.130 10 0 59592 54900.00000 0 -3151342.725 -25293141.694 -1687401.287 10 0 59592 55800.00000 0 -3253638.403 -25294002.167 1495480.259 10 0 59592 56700.00000 0 -3281429.443 -24905293.054 4649437.421 10 0 59592 57600.00000 0 -3184348.402 -24146035.104 7713480.629 10 0 59592 58500.00000 0 -2917181.124 -23047073.724 10628363.264 10 0 59592 59400.00000 0 -2442017.655 -21649796.789 13337713.131 10 0 59592 60300.00000 0 -1730098.686 -20004434.595 15789109.339 10 0 59592 61200.00000 0 -763280.054 -18168012.123 17935084.904 10 0 59592 62100.00000 0 464946.687 -16202037.822 19734036.853 10 0 59592 63000.00000 0 1948921.433 -14170023.805 21151027.211 10 0 59592 63900.00000 0 3670794.378 -12134939.240 22158460.008 10 0 59592 64800.00000 0 5601019.684 -10156701.519 22736621.557 10 0 59592 65700.00000 0 7699346.051 -8289808.324 22874073.462 10 0 59592 66600.00000 0 9916265.736 -6581208.386 22567890.118 10 0 59592 67500.00000 0 12194864.607 -5068499.039 21823735.087 10 0 59592 68400.00000 0 14472998.906 -3778525.719 20655773.395 10 0 59592 69300.00000 0 16685710.234 -2726442.267 19086419.649 10 0 59592 70200.00000 0 18767779.762 -1915272.017 17145924.952 10 0 59592 71100.00000 0 20656316.006 -1335988.919 14871808.588 10 0 59592 72000.00000 0 22293268.098 -968116.257 12308143.860 10 0 59592 72900.00000 0 23627758.776 -780818.473 9504710.492 10 0 59592 73800.00000 0 24618138.103 -734440.409 6516029.210 10 0 59592 74700.00000 0 25233669.996 -782428.916 3400297.094 10 0 59592 75600.00000 0 25455778.898 -873554.749 218244.795 10 0 59592 76500.00000 0 25278802.385 -954339.366 -2968061.125 10 0 59592 77400.00000 0 24710216.619 -971581.925 -6096445.749 10 0 59592 78300.00000 0 23770324.288 -874877.043 -9105857.510 10 0 59592 79200.00000 0 22491417.954 -619014.105 -11937577.968 10 0 59592 80100.00000 0 20916454.513 -166153.995 -14536384.016 10 0 59592 81000.00000 0 19097297.574 512311.182 -16851638.138 10 0 59592 81900.00000 0 17092603.143 1434295.903 -18838284.184 10 0 59592 82800.00000 0 14965439.101 2606019.591 -20457728.340 10 0 59592 83700.00000 0 12780739.986 4021508.569 -21678588.020 10 0 59592 84600.00000 0 10602704.996 5662622.770 -22477294.390 10 0 59592 85500.00000 0 8492249.013 7499605.807 -22838537.643 10 0 59593 0.00000 0 6504613.458 9492134.570 -22755547.627 10 0 59593 900.00000 0 4687235.149 11590824.792 -22230205.756 10 0 59593 1800.00000 0 3077963.461 13739126.095 -21272987.804 10 0 59593 2700.00000 0 1703694.615 15875530.385 -19902740.143 10 0 59593 3600.00000 0 579480.263 17935998.465 -18146295.191 10 0 59593 4500.00000 0 -291856.286 19856504.675 -16037934.818 10 0 59593 5400.00000 0 -919583.000 21575593.752 -13618713.035 10 0 59593 6300.00000 0 -1324409.805 23036844.072 -10935651.715 10 0 59593 7200.00000 0 -1537356.757 24191135.647 -8040825.341 10 0 59593 8100.00000 0 -1598189.303 24998629.634 -4990352.547 10 0 59593 9000.00000 0 -1553487.881 25430378.219 -1843313.746 10 0 59593 9900.00000 0 -1454433.945 25469499.106 1339384.564 10 0 59593 10800.00000 0 -1354405.931 25111866.887 4496177.542 10 0 59593 11700.00000 0 -1306486.249 24366293.422 7566020.086 10 0 59593 12600.00000 0 -1360983.791 23254190.337 10489553.385 10 0 59593 13500.00000 0 -1563075.644 21808727.873 13210238.566 10 0 59593 14400.00000 0 -1950666.645 20073524.860 15675436.754 10 0 59593 15300.00000 0 -2552556.413 18100923.625 17837415.784 10 0 59593 16200.00000 0 -3386990.918 15949920.495 19654265.278 10 0 59593 17100.00000 0 -4460659.962 13683836.490 21090703.374 10 0 59593 18000.00000 0 -5768183.725 11367823.458 22118760.156 10 0 59593 18900.00000 0 -7292111.719 9066307.630 22718324.903 10 0 59593 19800.00000 0 -9003436.478 6840475.273 22877546.523 10 0 59593 20700.00000 0 -10862603.212 4745903.746 22593078.805 10 0 59593 21600.00000 0 -12820976.136 2830435.583 21870164.757 10 0 59593 22500.00000 0 -14822703.100 1132383.613 20722556.927 10 0 59593 23400.00000 0 -16806903.117 -320857.974 19172273.499 10 0 59593 24300.00000 0 -18710087.436 -1513738.288 17249192.944 10 0 59593 25200.00000 0 -20468714.241 -2442970.784 14990493.134 10 0 59593 26100.00000 0 -22021770.506 -3117432.208 12439944.046 10 0 59593 27000.00000 0 -23313272.558 -3557542.966 9647066.401 10 0 59593 27900.00000 0 -24294579.369 -3794154.592 6666171.636 10 0 59593 28800.00000 0 -24926419.774 -3866991.104 3555301.693 10 0 59593 29700.00000 0 -25180546.412 -3822710.650 375089.585 10 0 59593 30600.00000 0 -25040944.751 -3712670.540 -2812436.106 10 0 59593 31500.00000 0 -24504544.383 -3590491.941 -5945077.879 10 0 59593 32400.00000 0 -23581401.277 -3509529.567 -8961701.397 10 0 59593 33300.00000 0 -22294342.396 -3520356.013 -11803446.923 10 0 59593 34200.00000 0 -20678087.560 -3668369.795 -14414894.410 10 0 59593 35100.00000 0 -18777885.964 -3991630.753 -16745157.813 10 0 59593 36000.00000 0 -16647725.674 -4519016.380 -18748885.943 10 0 59593 36900.00000 0 -14348192.703 -5268778.502 -20387149.481 10 0 59593 37800.00000 0 -11944070.877 -6247562.145 -21628196.668 10 0 59593 38700.00000 0 -9501784.313 -7449928.286 -22448063.280 10 0 59593 39600.00000 0 -7086790.468 -8858400.363 -22831025.821 10 0 59593 40500.00000 0 -4761033.009 -10444032.025 -22769890.350 10 0 59593 41400.00000 0 -2580560.475 -12167471.478 -22266112.816 10 0 59593 42300.00000 0 -593409.098 -13980476.877 -21329750.116 10 0 59593 43200.00000 0 1162163.729 -15827818.518 -19979244.450 10 0 59593 44100.00000 0 2659023.985 -17649487.673 -18241046.545 10 0 59593 45000.00000 0 3882030.195 -19383119.387 -16149086.333 10 0 59593 45900.00000 0 4828393.954 -20966528.089 -13744102.284 10 0 59593 46800.00000 0 5507519.790 -22340250.542 -11072843.055 10 0 59593 47700.00000 0 5940333.836 -23449990.630 -8187157.310 10 0 59593 48600.00000 0 6158131.938 -24248864.899 -5142989.423 10 0 59593 49500.00000 0 6200997.489 -24699356.235 -1999300.272 10 0 59593 50400.00000 0 6115856.761 -24774895.242 1183066.332 10 0 59593 51300.00000 0 5954254.288 -24461004.396 4342550.334 10 0 59593 52200.00000 0 5769942.054 -23755958.066 7418053.543 10 0 59593 53100.00000 0 5616383.699 -22670931.394 10350107.289 10 0 59593 54000.00000 0 5544278.199 -21229631.976 13082008.215 10 0 59593 54900.00000 0 5599206.560 -19467429.313 15560901.480 10 0 59593 55800.00000 0 5819499.861 -17430017.553 17738791.536 10 0 59593 56700.00000 0 6234417.922 -15171665.881 19573462.155 10 0 59593 57600.00000 0 6862715.178 -12753127.742 21029288.861 10 0 59593 58500.00000 0 7711654.548 -10239293.961 22077928.740 10 0 59593 59400.00000 0 8776511.868 -7696685.314 22698874.661 10 0 59593 60300.00000 0 10040593.500 -5190886.781 22879863.136 10 0 59593 61200.00000 0 11475768.618 -2784028.463 22617127.334 10 0 59593 62100.00000 0 13043496.563 -532416.534 21915489.399 10 0 59593 63000.00000 0 14696309.008 1515588.178 20788288.823 10 0 59593 63900.00000 0 16379687.481 3321355.865 19257146.529 10 0 59593 64800.00000 0 18034259.874 4857363.246 17351567.299 10 0 59593 65700.00000 0 19598225.558 6108100.910 15108386.287 10 0 59593 66600.00000 0 21009908.255 7070473.822 12571068.613 10 0 59593 67500.00000 0 22210329.585 7753677.460 9788874.214 10 0 59593 68400.00000 0 23145694.404 8178554.220 6815903.211 10 0 59593 69300.00000 0 23769681.930 8376456.892 3710040.141 10 0 59593 70200.00000 0 24045444.274 8387667.449 531817.905 10 0 59593 71100.00000 0 23947225.982 8259438.762 -2656775.516 10 0 59593 72000.00000 0 23461534.171 8043743.471 -5793522.753 10 0 59593 72900.00000 0 22587808.040 7794827.239 -8817209.396 10 0 59593 73800.00000 0 21338558.150 7566672.303 -11668837.024 10 0 59593 74700.00000 0 19738968.857 7410481.161 -14292791.104 10 0 59593 75600.00000 0 17825980.510 7372289.329 -16637939.302 10 0 59593 76500.00000 0 15646890.484 7490810.280 -18658637.426 10 0 59593 77400.00000 0 13257532.784 7795605.294 -20315622.464 10 0 59593 78300.00000 0 10720113.718 8305656.566 -21576775.107 10 0 59593 79200.00000 0 8100795.487 9028404.225 -22417737.173 10 0 59593 80100.00000 0 5467129.738 9959287.662 -22822372.712 10 0 59593 81000.00000 0 2885448.809 11081809.848 -22783065.018 10 0 59593 81900.00000 0 418323.410 12368120.999 -22300845.270 10 0 59593 82800.00000 0 -1877807.902 13780095.932 -21385351.862 10 0 59593 83700.00000 0 -3954740.135 15270858.814 -20054622.814 10 0 59593 84600.00000 0 -5774248.660 16786690.469 -18334726.740 10 0 59593 85500.00000 0 -7309411.044 18269237.649 -16259240.784 99